Niamtougou International Airport

Jump to: basic info | weather | frequencies | runways | comments

Related pages: nearby airports | nearby navaids | notams | map

Basic information (top)

Codes: LRL DXNG
Location: lon 9.767330, lat 1.091250, elev 1,515 ft / 462 m msl
Status: medium_airport
Scheduled airline service: no
Links: Wikipedia Mobile

Weather (top)

Current conditions (rec'd 2014/09/30 09:00Z):

DXNG 300900Z 16005KT 9999 -RA FEW005 22/21 Q1015 NOSIG

Airport forecast (rec'd 2014/09/30 06:45Z):

TAF TAF DXNG 300530Z 3006/0106 23005KT 9999 SCT012 
      BECMG 3009/3011 TS BKN013 FEW018CB 
      TEMPO 3011/3016 4000 TSRA 
      BECMG 3015/3017 NSW SCT013

Frequencies (top)

Verify before use: may be inaccurate or out of date.

A/G: 122.6 MHz (A/G VOICE RDO)
AFIS: 658.6 MHz (AFIS)
TWR: 118.3 MHz (TWR)

Runways (top)

03/21: 8,202 x 148 ft (2,500 x 45 m) — paved — lighted

Latest comments (top)

No comments yet for Niamtougou International Airport

More... (top)

See also NOTAMs and nearby airports and navaids, or visit the Niamtougou International Airport page at the main OurAirports website..